Weather History for Abingdon, VA

Change the Weather History Date:

Friday, July 19, 2013

  Actual Average (KTRI) Record (KTRI)
Temperature  
Mean Temperature 77 °F 75 °F  
Max Temperature 86 °F 86 °F 95 °F (1977)
Min Temperature 68 °F 64 °F 54 °F (2009)
Degree Days  
Heating Degree Days 0 0  
Month to date heating degree days 0  
Since 1 June heating degree days 11  
Since 1 July heating degree days 0  
Cooling Degree Days 12 10  
Month to date cooling degree days 187  
Year to date cooling degree days 466  
Since 1 June cooling degree days 393  
Growing Degree Days 27 (Base 50)    
Moisture  
Dew Point 73 °F    
Average Humidity 90    
Maximum Humidity 100    
Minimum Humidity 69    
Precipitation  
Precipitation 0.37 in 0.16 in 1.53 in (2012)
Month to date precipitation 2.87  
Year to date precipitation 24.16  
Snow  
Snow 0.00 in 0.00 in - ()
Month to date snowfall 0.0  
Since 1 June snowfall 0.0  
Since 1 July snowfall 0.0  
Snow Depth -    
Sea Level Pressure  
Sea Level Pressure 30.15 in    
Wind  
Wind Speed 2 mph (West)    
Max Wind Speed 13 mph    
Max Gust Speed 16 mph    
Visibility 7 miles    
Events Fog , Rain , Thunderstorm    
T = Trace of Precipitation, MM = Missing Value Source: NWS Daily Summary

Daily Weather History Graph

Daily Weather History Graph

Search for Another Location

Airport:

Trip Planner

Search our weather history database for the weather conditions in past years. The results will help you decide how hot, cold, wet, or windy it might be!

Date:

Astronomy

Jul. 19, 2013 Rise Set
Actual Time 6:24 AM EDT 8:44 PM EDT
Civil Twilight 5:54 AM EDT 9:13 PM EDT
Nautical Twilight 5:18 AM EDT 9:50 PM EDT
Astronomical Twilight 4:38 AM EDT 10:29 PM EDT
Moon 5:45 PM EDT (7/19) 3:03 AM EDT (7/19)
Length of Visible Light 15h 19m
Length of Day
14h 20m
Waxing Gibbous, 86% of the Moon is Illuminated
Jul 19
Waxing Gibbous
Jul 22
Full
Jul 29
Last Quarter
Aug 6
New
Aug 14
First Quarter

Hourly Weather History & Observations

Time (EDT) Temp. Heat Index Dew Point Humidity Pressure Visibility Wind Dir Wind Speed Gust Speed Precip Events Conditions
12:15 AM 71.2 °F - 71.2 °F 100% 30.20 in 3.0 mi Calm Calm - N/A   Clear
12:35 AM 70.9 °F - 70.9 °F 100% 30.20 in 3.0 mi Calm Calm - N/A   Clear
12:55 AM 70.2 °F - 70.2 °F 100% 30.20 in 0.8 mi Calm Calm - N/A   Overcast
1:15 AM 70.3 °F - 70.3 °F 100% 30.19 in 0.8 mi Calm Calm - N/A   Overcast
1:35 AM 70.0 °F - 70.0 °F 100% 30.19 in 0.2 mi Calm Calm - N/A Fog Fog
1:55 AM 69.1 °F - 69.1 °F 100% 30.18 in 0.2 mi Calm Calm - N/A Fog Fog
2:15 AM 69.6 °F - 69.6 °F 100% 30.18 in 0.2 mi Calm Calm - N/A Fog Fog
2:35 AM 69.1 °F - 69.1 °F 100% 30.18 in 0.5 mi Calm Calm - N/A Fog Fog
2:55 AM 68.9 °F - 68.9 °F 100% 30.18 in 2.0 mi Calm Calm - N/A   Mostly Cloudy
3:15 AM 68.9 °F - 68.9 °F 100% 30.17 in 3.0 mi Calm Calm - N/A   Clear
3:35 AM 69.1 °F - 69.1 °F 100% 30.16 in 3.0 mi Calm Calm - N/A   Clear
3:55 AM 68.5 °F - 68.5 °F 100% 30.17 in 3.0 mi Calm Calm - N/A   Clear
4:15 AM 68.7 °F - 68.7 °F 100% 30.17 in 2.5 mi Calm Calm - N/A   Scattered Clouds
4:35 AM 68.7 °F - 68.7 °F 100% 30.16 in 0.2 mi Calm Calm - N/A Fog Fog
4:55 AM 68.5 °F - 68.5 °F 100% 30.16 in 0.2 mi Calm Calm - N/A Fog Fog
5:15 AM 68.9 °F - 68.9 °F 100% 30.16 in 0.2 mi Calm Calm - N/A Fog Fog
5:35 AM 68.9 °F - 68.9 °F 100% 30.16 in 0.2 mi East 3.5 mph - N/A Fog Fog
5:55 AM 68.9 °F - 68.9 °F 100% 30.17 in 0.2 mi ENE 3.5 mph - N/A Fog Fog
6:15 AM 68.7 °F - 68.7 °F 100% 30.16 in 0.8 mi Calm Calm - N/A   Overcast
6:35 AM 68.4 °F - 68.4 °F 100% 30.17 in 0.2 mi Calm Calm - N/A Fog Fog
6:55 AM 68.9 °F - 68.9 °F 100% 30.16 in 0.2 mi Calm Calm - N/A Fog Fog
7:15 AM 69.1 °F - 69.1 °F 100% 30.17 in 0.2 mi Calm Calm - N/A Fog Fog
7:35 AM 69.3 °F - 69.3 °F 100% 30.18 in 0.2 mi Calm Calm - N/A Fog Fog
7:55 AM 70.0 °F - 70.0 °F 100% 30.18 in 2.0 mi Calm Calm - N/A   Overcast
8:15 AM 70.2 °F - 70.2 °F 100% 30.19 in 4.0 mi Calm Calm - N/A   Overcast
8:35 AM 70.7 °F - 70.7 °F 100% 30.19 in 5.0 mi Calm Calm - N/A   Mostly Cloudy
8:55 AM 71.8 °F - 71.8 °F 100% 30.20 in 7.0 mi Calm Calm - N/A   Scattered Clouds
9:15 AM 73.6 °F - 73.6 °F 100% 30.19 in 7.0 mi Calm Calm - N/A   Mostly Cloudy
9:35 AM 75.4 °F - 75.4 °F 100% 30.20 in 10.0 mi Calm Calm - N/A   Mostly Cloudy
9:55 AM 75.7 °F - 75.2 °F 98% 30.20 in 10.0 mi WSW 4.6 mph - N/A   Mostly Cloudy
10:15 AM 77.9 °F - 75.2 °F 91% 30.20 in 10.0 mi West 4.6 mph - N/A   Overcast
10:35 AM 79.0 °F - 75.6 °F 89% 30.19 in 10.0 mi WSW 4.6 mph - N/A   Overcast
10:55 AM 78.8 °F - 74.8 °F 88% 30.19 in 10.0 mi WSW 3.5 mph - N/A   Overcast
11:15 AM 79.5 °F - 74.8 °F 86% 30.20 in 10.0 mi Calm Calm - N/A   Mostly Cloudy
11:35 AM 80.8 °F 86.9 °F 75.7 °F 85% 30.19 in 10.0 mi West 5.8 mph - N/A   Overcast
11:55 AM 81.9 °F 89.2 °F 76.1 °F 83% 30.19 in 10.0 mi WSW 6.9 mph - N/A   Overcast
12:15 PM 82.4 °F 89.8 °F 75.7 °F 80% 30.18 in 10.0 mi West 6.9 mph - N/A   Mostly Cloudy
12:35 PM 82.8 °F 89.5 °F 74.7 °F 76% 30.18 in 10.0 mi WNW 3.5 mph - N/A   Mostly Cloudy
12:55 PM 83.7 °F 91.0 °F 74.5 °F 74% 30.17 in 10.0 mi SW 4.6 mph - N/A   Scattered Clouds
1:15 PM 84.6 °F 92.4 °F 74.5 °F 72% 30.16 in 10.0 mi WSW 5.8 mph - N/A Thunderstorm Scattered Clouds
1:35 PM 81.5 °F 87.4 °F 74.5 °F 79% 30.16 in 10.0 mi West 5.8 mph - N/A   Mostly Cloudy
1:55 PM 84.4 °F 91.7 °F 74.1 °F 71% 30.15 in 10.0 mi West 6.9 mph - N/A   Mostly Cloudy
2:15 PM 83.3 °F 90.8 °F 74.8 °F 76% 30.14 in 10.0 mi West 9.2 mph - N/A   Mostly Cloudy
2:35 PM 84.7 °F 92.1 °F 74.1 °F 70% 30.12 in 10.0 mi West 8.1 mph - N/A   Overcast
2:55 PM 83.5 °F 92.2 °F 76.3 °F 79% 30.12 in 10.0 mi SW 12.7 mph 16.1 mph N/A   Scattered Clouds
3:15 PM 83.8 °F 92.1 °F 75.4 °F 76% 30.11 in 10.0 mi West 8.1 mph - N/A   Scattered Clouds
3:35 PM 83.5 °F 90.3 °F 73.9 °F 73% 30.10 in 10.0 mi WSW 8.1 mph - N/A   Clear
3:55 PM 83.5 °F 90.0 °F 73.6 °F 72% 30.10 in 10.0 mi WSW 6.9 mph - N/A   Clear
4:15 PM 83.5 °F 90.9 °F 74.8 °F 75% 30.09 in 10.0 mi West 4.6 mph - N/A   Clear
4:35 PM 83.3 °F 90.8 °F 75.2 °F 76% 30.10 in 10.0 mi West 4.6 mph - N/A   Scattered Clouds
4:55 PM 83.8 °F 92.1 °F 75.6 °F 76% 30.09 in 10.0 mi WNW 5.8 mph - N/A   Scattered Clouds
5:15 PM 86.0 °F 95.1 °F 75.4 °F 70% 30.08 in 10.0 mi WNW 6.9 mph - N/A Thunderstorm Clear
5:35 PM 85.5 °F 93.4 °F 74.3 °F 69% 30.08 in 10.0 mi Calm Calm - N/A   Mostly Cloudy
5:55 PM 83.7 °F 91.3 °F 75.0 °F 75% 30.07 in 10.0 mi West 3.5 mph - N/A   Mostly Cloudy
6:15 PM 83.3 °F 90.8 °F 75.2 °F 76% 30.08 in 10.0 mi Calm Calm - N/A   Overcast
6:35 PM 82.8 °F 90.1 °F 75.4 °F 78% 30.08 in 10.0 mi Calm Calm - N/A   Overcast
6:55 PM 82.4 °F 89.8 °F 75.7 °F 80% 30.08 in 10.0 mi Calm Calm - N/A   Overcast
7:15 PM 82.4 °F 90.3 °F 76.3 °F 82% 30.07 in 10.0 mi Calm Calm - N/A   Overcast
7:35 PM 81.9 °F 89.7 °F 76.8 °F 85% 30.08 in 10.0 mi Calm Calm - N/A   Overcast
7:55 PM 81.5 °F 89.5 °F 77.7 °F 88% 30.08 in 10.0 mi East 4.6 mph - N/A   Mostly Cloudy
8:15 PM 80.1 °F 85.4 °F 75.9 °F 87% 30.08 in 10.0 mi Calm Calm - N/A Thunderstorm Clear
8:35 PM 79.5 °F - 75.2 °F 87% 30.08 in 10.0 mi Calm Calm - N/A Thunderstorm Thunderstorm
8:55 PM 78.4 °F - 75.4 °F 90% 30.09 in 10.0 mi Calm Calm - N/A   Mostly Cloudy
9:15 PM 78.1 °F - 75.6 °F 92% 30.09 in 10.0 mi North 3.5 mph - N/A   Scattered Clouds
9:35 PM 78.6 °F - 73.9 °F 85% 30.10 in 10.0 mi NE 3.5 mph - N/A   Mostly Cloudy
9:55 PM 77.7 °F - 73.8 °F 88% 30.12 in 7.0 mi WNW 6.9 mph - N/A Thunderstorm Thunderstorm
10:15 PM 72.0 °F - 71.2 °F 98% 30.14 in 1.5 mi ESE 8.1 mph - 0.35 in Rain , Thunderstorm Heavy Thunderstorms and Rain
10:35 PM 73.0 °F - 71.1 °F 93% 30.12 in 10.0 mi East 3.5 mph - 0.37 in Rain , Thunderstorm Light Thunderstorms and Rain
10:55 PM 71.8 °F - 71.6 °F 99% 30.12 in 10.0 mi Calm Calm - 0.37 in Rain , Thunderstorm Light Thunderstorms and Rain
11:15 PM 71.6 °F - 71.6 °F 100% 30.12 in 10.0 mi Calm Calm - N/A Thunderstorm Scattered Clouds
11:35 PM 70.7 °F - 70.7 °F 100% 30.12 in 7.0 mi Calm Calm - N/A   Scattered Clouds
11:55 PM 71.6 °F - 71.6 °F 100% 30.12 in 7.0 mi WNW 3.5 mph - N/A   Mostly Cloudy